Home   Weather   Esch-sur-Alzette   Past weeks

Flag for Luxembourg Past Weather in Esch-sur-Alzette, Luxembourg — Yesterday and Last 2 Weeks

Now
27 °F

Ice fog.


Feels Like: 27 °F
Forecast: 33 / 45 °F
Wind: 1 mph from North

Location: Luxembourg Airport

Current Time: Dec 8, 2016 at 3:33:11 am

Latest Report: Dec 8, 2016 at 2:50 am


Visibility: 0 mi

Pressure: 30.51 "Hg

Humidity: 100%

Dew Point: 27 °F

Location of Esch-sur-AlzetteLocation

Past Weather in Esch-sur-Alzette — Graph

°F

Esch-sur-Alzette Temperature Yesterday

Maximum temperature yesterday: 34 °F (at 2:50 pm)
Minimum temperature yesterday: 21 °F (at 4:20 am)
Average temperature yesterday: 27 °F

High & Low Weather Summary for the Past Weeks

 TemperatureHumidityPressure
High57 °F (Nov 23, 2:20 pm)100% (Nov 23, 3:20 am)30.54 "Hg (Nov 23, 3:20 am)
Low21 °F (Nov 30, 5:20 am)45% (Nov 29, 2:20 pm)29.95 "Hg (Nov 23, 2:50 am)
Average36 °F83%30.24 "Hg
* Reported Nov 23 2:50 am — Dec 8 2:20 am, Esch-sur-Alzette, Weather by CustomWeather, © 2016

Note: Actual official high and low records may vary slightly from our data, if they occured in-between our weather recording intervals... More about our weather records

Advertising

Esch-sur-Alzette Weather History for the Previous 24 Hours

Scroll right to see more
 ConditionsComfort  
Time TempWeatherWind HumidityBarometerVisibility
2:20 am
Thu, Dec 8
27 °FIce fog.5 mph100%30.48 "Hg0 mi
1:50 am27 °FIce fog.5 mph100%30.51 "Hg0 mi
1:20 am27 °FIce fog.1 mph100%30.51 "Hg0 mi
12:50 am28 °FIce fog.2 mph100%30.51 "Hg0 mi
12:20 am28 °FIce fog.3 mph100%30.51 "Hg0 mi
11:50 pm
Wed, Dec 7
28 °FIce fog.3 mph100%30.51 "Hg0 mi
11:20 pm28 °FIce fog.1 mph100%30.51 "Hg0 mi
10:50 pm28 °FIce fog.3 mph100%30.51 "Hg0 mi
10:20 pm28 °FIce fog.2 mph100%30.51 "Hg0 mi
9:50 pm28 °FIce fog.2 mph100%30.51 "Hg0 mi
9:20 pm28 °FIce fog.3 mph100%30.51 "Hg0 mi
8:50 pm28 °FIce fog.3 mph100%30.51 "Hg0 mi
8:20 pm28 °FIce fog.5 mph100%30.51 "Hg0 mi
7:50 pm28 °FIce fog.2 mph100%30.51 "Hg0 mi
7:20 pm28 °FIce fog.2 mph100%30.51 "Hg0 mi
6:50 pm28 °FIce fog.6 mph100%30.48 "Hg0 mi
6:20 pm28 °FIce fog.5 mph100%30.51 "Hg0 mi
5:50 pm28 °FIce fog.3 mph100%30.51 "Hg0 mi
5:20 pm28 °FIce fog.3 mph100%30.51 "Hg0 mi
4:50 pm30 °FIce fog.2 mph100%30.48 "Hg1 mi
4:20 pm30 °FIce fog.5 mph100%30.48 "Hg0 mi
3:50 pm32 °FIce fog.2 mph93%30.48 "Hg1 mi
3:20 pm32 °FIce fog.3 mph100%30.48 "Hg1 mi
2:50 pm34 °FFog.2 mph93%30.48 "Hg2 mi
2:20 pm32 °FIce fog.2 mph100%30.48 "Hg1 mi
1:50 pm32 °FIce fog.2 mph93%30.48 "Hg1 mi
1:20 pm30 °FIce fog.2 mph100%30.48 "Hg2 mi
12:50 pm30 °FIce fog.2 mph100%30.48 "Hg2 mi
12:20 pm30 °FIce fog.1 mph93%30.51 "Hg2 mi
11:50 am28 °FIce fog.2 mph100%30.51 "Hg1 mi
11:20 am30 °FIce fog.2 mph93%30.51 "Hg1 mi
10:50 am27 °FIce fog.1 mph100%30.51 "Hg1 mi
10:20 am27 °FScattered clouds.2 mph93%30.51 "Hg1 mi
9:50 am25 °FIce fog.2 mph100%30.48 "Hg1 mi
9:20 am25 °FIce fog.2 mph100%30.48 "Hg1 mi
8:50 am25 °FIce fog.1 mph100%30.48 "Hg0 mi
8:20 am25 °FIce fog.2 mph100%30.48 "Hg0 mi
7:50 am25 °FIce fog.3 mph100%30.48 "Hg0 mi
7:20 am23 °FIce fog.5 mph100%30.48 "Hg1 mi
6:50 am23 °FIce fog.1 mph100%30.48 "Hg1 mi
6:20 am23 °FIce fog.1 mph100%30.48 "Hg0 mi
5:50 am21 °FIce fog.No wind100%30.48 "Hg0 mi
5:20 am21 °FCold.2 mph100%30.48 "Hg1 mi
4:50 am23 °FIce fog.1 mph100%30.48 "Hg0 mi
4:20 am21 °FIce fog.1 mph100%30.48 "Hg2 mi
3:50 am23 °FIce fog.1 mph93%30.48 "Hg3 mi
3:20 am23 °FClear.1 mph100%30.48 "HgN/A
Weather by CustomWeather, © 2016

See weather overviewHow to use our weather pages